Weather History for Rensselaer, IN

Change the Weather History Date:

Saturday, January 4, 2014

  Actual Average (KVPZ) Record (KVPZ)
Temperature  
Mean Temperature 26 °F 24 °F  
Max Temperature 32 °F 31 °F 55 °F (1998)
Min Temperature 19 °F 17 °F -12 °F (1999)
Degree Days  
Heating Degree Days 40 41  
Month to date heating degree days 164  
Since 1 July heating degree days 2566  
Cooling Degree Days 0 0  
Month to date cooling degree days 0  
Year to date cooling degree days 0  
Moisture  
Dew Point 22 °F    
Average Humidity 79    
Maximum Humidity 87    
Minimum Humidity 68    
Precipitation  
Precipitation 0.00 in 0.05 in 0.90 in (2007)
Sea Level Pressure  
Sea Level Pressure 29.96 in    
Wind  
Wind Speed 16 mph (SSW)    
Max Wind Speed 23 mph    
Max Gust Speed 31 mph    
Visibility 10 miles    
Events      
T = Trace of Precipitation, MM = Missing Value Source: NWS Daily Summary

Daily Weather History Graph

Daily Weather History Graph

Search for Another Location

Airport:

Trip Planner

Search our weather history database for the weather conditions in past years. The results will help you decide how hot, cold, wet, or windy it might be!

Date:

Astronomy

Jan. 04, 2014 Rise Set
Actual Time 7:13 AM CST 4:34 PM CST
Civil Twilight 6:42 AM CST 5:04 PM CST
Nautical Twilight 6:08 AM CST 5:39 PM CST
Astronomical Twilight 5:35 AM CST 6:12 PM CST
Moon 9:17 AM CST (1/4) 8:55 PM CST (1/4)
Length of Visible Light 10h 22m
Length of Day
9h 20m
Waxing Crescent, 15% of the Moon is Illuminated
Jan 4
Waxing Crescent
Jan 7
First Quarter
Jan 15
Full
Jan 23
Last Quarter
Jan 30
New

Hourly Weather History & Observations

Time (CST) Temp. Windchill Dew Point Humidity Pressure Visibility Wind Dir Wind Speed Gust Speed Precip Events Conditions
12:15 AM 19.4 °F 5.0 °F 12.2 °F 74% 30.01 in 10.0 mi South 16.1 mph 24.2 mph N/A   Clear
12:35 AM 19.4 °F 5.0 °F 14.0 °F 80% 30.00 in 10.0 mi South 16.1 mph - N/A   Clear
12:55 AM 19.4 °F 5.0 °F 14.0 °F 80% 29.99 in 10.0 mi South 16.1 mph - N/A   Clear
1:15 AM 19.4 °F 5.5 °F 14.0 °F 80% 29.99 in 10.0 mi South 15.0 mph - N/A   Clear
1:35 AM 21.2 °F 7.3 °F 14.0 °F 74% 29.99 in 10.0 mi South 16.1 mph - N/A   Clear
1:55 AM 21.2 °F 7.8 °F 14.0 °F 74% 29.99 in 10.0 mi South 15.0 mph 23.0 mph N/A   Clear
2:15 AM 21.2 °F 7.3 °F 14.0 °F 74% 29.99 in 10.0 mi South 16.1 mph 21.9 mph N/A   Clear
2:35 AM 23.0 °F 9.6 °F 14.0 °F 68% 29.99 in 10.0 mi South 16.1 mph 24.2 mph N/A   Clear
2:55 AM 23.0 °F 7.6 °F 14.0 °F 68% 29.98 in 10.0 mi South 21.9 mph 27.6 mph N/A   Clear
3:15 AM 23.0 °F 9.2 °F 14.0 °F 68% 29.98 in 10.0 mi SSW 17.3 mph 25.3 mph N/A   Clear
3:35 AM 23.0 °F 7.6 °F 14.0 °F 68% 29.97 in 10.0 mi South 21.9 mph 28.8 mph N/A   Clear
3:55 AM 23.0 °F 7.2 °F 14.0 °F 68% 29.96 in 10.0 mi South 23.0 mph 27.6 mph N/A   Clear
4:15 AM 23.0 °F 8.3 °F 15.8 °F 74% 29.95 in 10.0 mi South 19.6 mph 26.5 mph N/A   Clear
4:35 AM 23.0 °F 8.3 °F 15.8 °F 74% 29.95 in 10.0 mi South 19.6 mph 26.5 mph N/A   Clear
4:55 AM 23.0 °F 8.0 °F 15.8 °F 74% 29.94 in 10.0 mi South 20.7 mph 28.8 mph N/A   Clear
5:15 AM 23.0 °F 8.3 °F 15.8 °F 74% 29.94 in 10.0 mi South 19.6 mph 27.6 mph N/A   Clear
5:35 AM 23.0 °F 7.2 °F 17.6 °F 80% 29.94 in 10.0 mi South 23.0 mph 28.8 mph N/A   Clear
5:55 AM 23.0 °F 7.2 °F 17.6 °F 80% 29.94 in 10.0 mi South 23.0 mph 27.6 mph N/A   Clear
6:15 AM 23.0 °F 7.6 °F 17.6 °F 80% 29.93 in 10.0 mi South 21.9 mph 28.8 mph N/A   Clear
6:35 AM 23.0 °F 7.6 °F 17.6 °F 80% 29.93 in 10.0 mi SSW 21.9 mph 28.8 mph N/A   Clear
6:55 AM 24.8 °F 10.0 °F 17.6 °F 74% 29.92 in 10.0 mi SSW 21.9 mph 27.6 mph N/A   Clear
7:15 AM 24.8 °F 10.7 °F 17.6 °F 74% 29.93 in 10.0 mi SSW 19.6 mph - N/A   Clear
7:35 AM 24.8 °F 11.1 °F 17.6 °F 74% 29.93 in 10.0 mi SSW 18.4 mph 24.2 mph N/A   Clear
7:55 AM 24.8 °F 10.7 °F 17.6 °F 74% 29.93 in 10.0 mi SSW 19.6 mph 24.2 mph N/A   Clear
8:15 AM 26.6 °F 13.8 °F 19.4 °F 74% 29.94 in 10.0 mi SSW 17.3 mph 25.3 mph N/A   Clear
8:35 AM 26.6 °F 12.0 °F 19.4 °F 74% 29.94 in 10.0 mi SSW 23.0 mph 26.5 mph N/A   Clear
8:55 AM 26.6 °F 12.7 °F 19.4 °F 74% 29.95 in 10.0 mi SSW 20.7 mph 26.5 mph N/A   Clear
9:15 AM 28.4 °F 15.4 °F 19.4 °F 69% 29.95 in 10.0 mi SSW 19.6 mph 27.6 mph N/A   Clear
9:35 AM 28.4 °F 14.7 °F 21.2 °F 74% 29.96 in 10.0 mi SSW 21.9 mph 26.5 mph N/A   Clear
9:55 AM 28.4 °F 15.8 °F 21.2 °F 74% 29.96 in 10.0 mi SSW 18.4 mph 26.5 mph N/A   Clear
10:15 AM 30.2 °F 17.8 °F 21.2 °F 69% 29.96 in 10.0 mi SSW 19.6 mph 27.6 mph N/A   Clear
10:35 AM 30.2 °F 17.1 °F 23.0 °F 75% 29.96 in 10.0 mi SSW 21.9 mph 31.1 mph N/A   Clear
10:55 AM 30.2 °F 17.1 °F 23.0 °F 75% 29.94 in 7.0 mi SSW 21.9 mph 31.1 mph N/A   Clear
11:15 AM 30.2 °F 17.8 °F 23.0 °F 75% 29.94 in 7.0 mi SSW 19.6 mph 29.9 mph N/A   Clear
11:35 AM 30.2 °F 16.8 °F 23.0 °F 75% 29.93 in 10.0 mi SSW 23.0 mph 28.8 mph N/A   Clear
11:55 AM 32.0 °F 20.1 °F 23.0 °F 69% 29.92 in 10.0 mi SSW 19.6 mph 26.5 mph N/A   Clear
12:15 PM 32.0 °F 19.8 °F 23.0 °F 69% 29.92 in 10.0 mi SSW 20.7 mph 25.3 mph N/A   Clear
12:35 PM 32.0 °F 20.1 °F 24.8 °F 75% 29.92 in 10.0 mi SSW 19.6 mph 27.6 mph N/A   Clear
12:55 PM 32.0 °F 20.8 °F 24.8 °F 75% 29.91 in 10.0 mi SSW 17.3 mph - N/A   Clear
1:15 PM 32.0 °F 20.5 °F 24.8 °F 75% 29.91 in 10.0 mi SSW 18.4 mph 21.9 mph N/A   Clear
1:35 PM 32.0 °F 22.1 °F 26.6 °F 80% 29.91 in 10.0 mi SSW 13.8 mph - N/A   Scattered Clouds
1:55 PM 32.0 °F 20.1 °F 26.6 °F 80% 29.91 in 10.0 mi SSW 19.6 mph 24.2 mph N/A   Mostly Cloudy
2:15 PM 32.0 °F 20.5 °F 26.6 °F 80% 29.92 in 10.0 mi SSW 18.4 mph 23.0 mph N/A   Overcast
2:35 PM 32.0 °F 21.2 °F 26.6 °F 80% 29.92 in 10.0 mi SSW 16.1 mph - N/A   Overcast
2:55 PM 32.0 °F 21.6 °F 26.6 °F 80% 29.92 in 10.0 mi SSW 15.0 mph 21.9 mph N/A   Mostly Cloudy
3:15 PM 32.0 °F 22.1 °F 26.6 °F 80% 29.92 in 10.0 mi South 13.8 mph - N/A   Mostly Cloudy
3:35 PM 32.0 °F 22.5 °F 28.4 °F 87% 29.93 in 10.0 mi SSW 12.7 mph - N/A   Overcast
3:55 PM 32.0 °F 21.2 °F 28.4 °F 87% 29.94 in 10.0 mi South 16.1 mph - N/A   Overcast
4:15 PM 32.0 °F 22.5 °F 26.6 °F 80% 29.94 in 10.0 mi SSW 12.7 mph - N/A   Mostly Cloudy
4:35 PM 32.0 °F 23.6 °F 26.6 °F 80% 29.95 in 10.0 mi SSW 10.4 mph - N/A   Mostly Cloudy
4:55 PM 32.0 °F 23.6 °F 28.4 °F 87% 29.95 in 10.0 mi SSW 10.4 mph - N/A   Overcast
5:15 PM 32.0 °F 24.8 °F 28.4 °F 87% 29.96 in 10.0 mi SSW 8.1 mph - N/A   Overcast
5:35 PM 32.0 °F 25.6 °F 28.4 °F 87% 29.96 in 10.0 mi SSW 6.9 mph - N/A   Mostly Cloudy
5:55 PM 32.0 °F 25.6 °F 28.4 °F 87% 29.96 in 10.0 mi SSW 6.9 mph - N/A   Mostly Cloudy
6:15 PM 32.0 °F 26.4 °F 28.4 °F 87% 29.96 in 10.0 mi SSW 5.8 mph - N/A   Overcast
6:35 PM 32.0 °F 25.6 °F 28.4 °F 87% 29.97 in 10.0 mi SSW 6.9 mph - N/A   Overcast
6:55 PM 32.0 °F 26.4 °F 28.4 °F 87% 29.97 in 10.0 mi SSW 5.8 mph - N/A   Mostly Cloudy
7:15 PM 32.0 °F 26.4 °F 28.4 °F 87% 29.97 in 10.0 mi South 5.8 mph - N/A   Mostly Cloudy
7:35 PM 32.0 °F 27.5 °F 28.4 °F 87% 29.98 in 10.0 mi South 4.6 mph - N/A   Overcast
7:55 PM 32.0 °F 27.5 °F 28.4 °F 87% 29.98 in 10.0 mi South 4.6 mph - N/A   Overcast
8:15 PM 32.0 °F 25.6 °F 28.4 °F 87% 29.98 in 10.0 mi South 6.9 mph - N/A   Overcast
8:35 PM 32.0 °F 25.6 °F 28.4 °F 87% 29.98 in 10.0 mi SSW 6.9 mph - N/A   Overcast
8:55 PM 32.0 °F 26.4 °F 28.4 °F 87% 29.98 in 10.0 mi South 5.8 mph - N/A   Overcast
9:15 PM 32.0 °F 26.4 °F 28.4 °F 87% 29.98 in 10.0 mi South 5.8 mph - N/A   Overcast
9:35 PM 32.0 °F 28.7 °F 28.4 °F 87% 29.98 in 10.0 mi South 3.5 mph - N/A   Overcast
9:55 PM 32.0 °F 27.5 °F 28.4 °F 87% 29.98 in 10.0 mi South 4.6 mph - N/A   Overcast
10:15 PM 32.0 °F 28.7 °F 28.4 °F 87% 29.98 in 10.0 mi South 3.5 mph - N/A   Overcast
10:35 PM 32.0 °F 27.5 °F 28.4 °F 87% 29.98 in 10.0 mi South 4.6 mph - N/A   Overcast
10:55 PM 32.0 °F - 28.4 °F 87% 29.97 in 10.0 mi Calm Calm - N/A   Overcast
11:15 PM 32.0 °F 28.7 °F 28.4 °F 87% 29.99 in 10.0 mi WNW 3.5 mph - N/A   Overcast
11:35 PM 32.0 °F - 28.4 °F 87% 29.99 in 10.0 mi Calm Calm - N/A   Overcast
11:55 PM 32.0 °F - 28.4 °F 87% 29.99 in 10.0 mi Calm Calm - N/A   Overcast